Ohio State University, OH

9:21 AM EDT on June 29, 2017 (GMT -0400)
Ohio State University

Weather History for KOSU - December, 2012

Change the Weather History Date:

Friday, December 28, 2012

  Actual Average Record
Temperature  
Mean Temperature 28 °F -  
Max Temperature 32 °F 35 °F 64 °F (1996)
Min Temperature 25 °F 22 °F 3 °F (2000)
Degree Days  
Heating Degree Days 36    
Moisture  
Dew Point 25 °F    
Average Humidity 86    
Maximum Humidity 96    
Minimum Humidity 75    
Precipitation  
Precipitation 0.00 in - - ()
Sea Level Pressure  
Sea Level Pressure 30.07 in    
Wind  
Wind Speed 3 mph (ESE)    
Max Wind Speed 10 mph    
Max Gust Speed -    
Visibility 8 miles    
Events      
Averages and records for this station are not official NWS values.
T = Trace of Precipitation, MM = Missing Value Source: NWS Daily Summary

Daily Weather History Graph

Daily Weather History Graph

Search for Another Location

Airport or City:

Trip Planner

Search our weather history database for the weather conditions in past years. The results will help you decide how hot, cold, wet, or windy it might be!

Date:

Astronomy

Dec. 28, 2012 Rise Set
Actual Time 7:53 AM EST 5:14 PM EST
Civil Twilight 7:23 AM EST 5:45 PM EST
Nautical Twilight 6:49 AM EST 6:19 PM EST
Astronomical Twilight 6:16 AM EST 6:52 PM EST
Moon 5:50 PM EST (12/28) 7:47 AM EST (12/28)
Length of Visible Light 10h 22m
Length of Day
9h 20m
Full, 100% of the Moon is Illuminated
Dec 28
Full
Jan 4
Last Quarter
Jan 11
New
Jan 18
First Quarter
Jan 26
Full

Hourly Weather History & Observations

Time (EST) Temp. Windchill Dew Point Humidity Pressure Visibility Wind Dir Wind Speed Gust Speed Precip Events Conditions
12:53 AM 25.0 °F - 23.0 °F 92% 30.16 in 5.0 mi Calm Calm - N/A   Overcast
1:53 AM 25.0 °F - 23.0 °F 92% 30.16 in 5.0 mi Calm Calm - N/A   Overcast
2:53 AM 25.0 °F - 23.0 °F 92% 30.18 in 5.0 mi Calm Calm - N/A   Overcast
3:53 AM 26.1 °F - 24.1 °F 92% 30.19 in 5.0 mi Calm Calm - N/A   Overcast
4:53 AM 26.1 °F - 24.1 °F 92% 30.17 in 6.0 mi Calm Calm - N/A   Overcast
5:23 AM 26.6 °F - 24.8 °F 93% 30.13 in 5.0 mi Calm Calm - N/A   Overcast
5:53 AM 27.0 °F - 24.1 °F 89% 30.16 in 6.0 mi Calm Calm - N/A   Overcast
6:53 AM 27.0 °F 23.0 °F 25.0 °F 92% 30.16 in 5.0 mi ESE 3.5 mph - N/A   Overcast
7:53 AM 26.1 °F 20.5 °F 25.0 °F 96% 30.14 in 4.0 mi ESE 4.6 mph - N/A   Overcast
8:53 AM 27.0 °F 21.6 °F 24.1 °F 89% 30.15 in 4.0 mi SSE 4.6 mph - N/A   Overcast
9:53 AM 28.0 °F 20.8 °F 24.1 °F 85% 30.17 in 4.0 mi SSE 6.9 mph - N/A   Overcast
10:53 AM 28.9 °F 25.2 °F 25.0 °F 85% 30.19 in 6.0 mi SSE 3.5 mph - N/A   Overcast
11:53 AM 30.0 °F - 25.0 °F 82% 30.17 in 10.0 mi Calm Calm - N/A   Mostly Cloudy
12:53 PM 30.9 °F 27.5 °F 25.0 °F 79% 30.12 in 10.0 mi Variable 3.5 mph - N/A   Mostly Cloudy
1:14 PM 30.2 °F 26.7 °F 24.8 °F 80% 30.07 in 10.0 mi East 3.5 mph - N/A   Scattered Clouds
1:53 PM 30.9 °F 23.5 °F 25.0 °F 79% 30.05 in 10.0 mi East 8.1 mph - N/A   Partly Cloudy
2:27 PM 32.0 °F 24.8 °F 24.8 °F 75% 30.01 in 10.0 mi East 8.1 mph - N/A   Mostly Cloudy
2:38 PM 32.0 °F 24.8 °F 24.8 °F 75% 30.02 in 10.0 mi East 8.1 mph - N/A   Scattered Clouds
2:53 PM 32.0 °F 25.6 °F 25.0 °F 75% 30.04 in 10.0 mi East 6.9 mph - N/A   Partly Cloudy
3:53 PM 30.9 °F 24.3 °F 25.0 °F 79% 30.03 in 10.0 mi East 6.9 mph - N/A   Clear
4:53 PM 30.0 °F 21.1 °F 25.0 °F 82% 30.01 in 10.0 mi East 10.4 mph - N/A   Clear
5:53 PM 28.9 °F 21.1 °F 24.1 °F 82% 30.02 in 10.0 mi ESE 8.1 mph - N/A   Clear
6:53 PM 28.9 °F 21.9 °F 25.0 °F 85% 30.02 in 9.0 mi ESE 6.9 mph - N/A   Overcast
7:03 PM 28.4 °F 20.4 °F 24.8 °F 86% 29.98 in 9.0 mi East 8.1 mph - N/A   Overcast
7:15 PM 28.4 °F 20.4 °F 24.8 °F 86% 29.97 in 9.0 mi East 8.1 mph - N/A   Overcast
7:53 PM 27.0 °F 18.7 °F 24.1 °F 89% 30.00 in 9.0 mi East 8.1 mph - N/A   Mostly Cloudy
8:53 PM 27.0 °F 19.5 °F 24.1 °F 89% 29.97 in 8.0 mi East 6.9 mph - N/A   Mostly Cloudy
9:53 PM 28.0 °F 21.7 °F 25.0 °F 88% 29.93 in 9.0 mi East 5.8 mph - N/A   Overcast
10:53 PM 28.0 °F 21.7 °F 25.0 °F 88% 29.91 in 9.0 mi East 5.8 mph - N/A   Overcast
11:53 PM 28.9 °F 22.8 °F 26.1 °F 89% 29.89 in 9.0 mi SE 5.8 mph - N/A   Overcast